San Bernardino, CA

2:59 AM PDT on October 22, 2019 (GMT -0700)
San Bernardino International

Weather History for KSBD - May, 2019

Change the Weather History Date:

Sunday, May 19, 2019

  Actual Average Record
Temperature  
Mean Temperature 58 °F -  
Max Temperature 66 °F 81 °F 91 °F (2017)
Min Temperature 51 °F 52 °F 44 °F (2011)
Degree Days  
Heating Degree Days 6    
Growing Degree Days 8 (Base 50)    
Moisture  
Dew Point 47 °F    
Average Humidity 69    
Maximum Humidity 86    
Minimum Humidity 40    
Precipitation  
Precipitation 0.26 in - - ()
Sea Level Pressure  
Sea Level Pressure 29.89 in    
Wind  
Wind Speed 6 mph (SW)    
Max Wind Speed 16 mph    
Max Gust Speed 26 mph    
Visibility 8 miles    
Events Rain    
Averages and records for this station are not official NWS values.
T = Trace of Precipitation, MM = Missing Value Source: NWS Daily Summary

Daily Weather History Graph

Daily Weather History Graph

Search for Another Location

Airport or City:

Astronomy

May. 19, 2019 Rise Set
Actual Time 5:44 AM PDT 7:46 PM PDT
Civil Twilight 5:16 AM PDT 8:14 PM PDT
Nautical Twilight 4:42 AM PDT 8:48 PM PDT
Astronomical Twilight 4:06 AM PDT 9:25 PM PDT
Moon 8:51 PM PDT (5/19) 6:31 AM PDT (5/19)
Length of Visible Light 14h 57m
Length of Day
14h 01m
Full, 99% of the Moon is Illuminated
May 19
Full
May 26
Last Quarter
Jun 3
New
Jun 9
First Quarter
Jun 17
Full

Hourly Weather History & Observations

Time (PDT) Temp. Dew Point Humidity Pressure Visibility Wind Dir Wind Speed Gust Speed Precip Events Conditions
12:00 AM 59.9 °F 49.6 °F 69% 29.92 in 10.0 mi West 5.8 mph - N/A   Drizzle
12:20 AM 59.5 °F 50.4 °F 72% 29.92 in 10.0 mi West 4.6 mph - N/A Rain Rain
12:40 AM 59.4 °F 50.5 °F 73% 29.92 in 10.0 mi West 4.6 mph - N/A Rain Light Rain
1:00 AM 59.0 °F 50.4 °F 73% 29.91 in 10.0 mi Calm Calm - N/A   Drizzle
1:20 AM 59.0 °F 50.0 °F 72% 29.91 in 10.0 mi South 4.6 mph - N/A   Overcast
1:40 AM 59.0 °F 46.6 °F 63% 29.90 in 10.0 mi SSW 3.5 mph - N/A   Light Drizzle
2:00 AM 59.0 °F 46.6 °F 63% 29.89 in 10.0 mi Calm Calm - N/A   Light Drizzle
2:20 AM 58.5 °F 50.4 °F 74% 29.89 in 10.0 mi SSW 4.6 mph - N/A   Drizzle
2:40 AM 57.7 °F 50.2 °F 76% 29.89 in 10.0 mi SW 3.5 mph - N/A   Drizzle
3:00 AM 57.0 °F 50.5 °F 79% 29.89 in 5.0 mi West 5.8 mph - N/A Rain Rain
3:20 AM 55.9 °F 50.9 °F 83% 29.89 in 5.0 mi WSW 9.2 mph - 0.03 in Rain Heavy Rain
3:40 AM 54.9 °F 50.0 °F 84% 29.89 in 5.0 mi WSW 9.2 mph - 0.09 in Rain Rain
4:00 AM 54.0 °F 49.3 °F 84% 29.89 in 5.0 mi WSW 4.6 mph - N/A Rain Rain
4:20 AM 53.4 °F 48.6 °F 84% 29.89 in 5.0 mi West 8.1 mph - 0.06 in Rain Rain
4:40 AM 53.1 °F 48.6 °F 85% 29.89 in 7.0 mi SW 9.2 mph - 0.09 in Rain Rain
5:00 AM 52.2 °F 47.8 °F 85% 29.88 in 5.0 mi SW 8.1 mph - N/A Rain Rain
5:20 AM 51.8 °F 47.5 °F 85% 29.89 in 5.0 mi WSW 6.9 mph - 0.03 in Rain Rain
5:40 AM 51.4 °F 47.3 °F 86% 29.88 in 5.0 mi Calm Calm - 0.08 in Rain Heavy Rain
6:47 AM 51.8 °F 46.4 °F 82% 29.90 in 4.0 mi Calm Calm - N/A Rain Rain
7:48 AM 51.8 °F 46.4 °F 82% 29.91 in 4.0 mi Calm Calm - N/A Rain Rain
8:50 AM 53.6 °F 44.6 °F 72% 29.91 in 5.0 mi Calm Calm - N/A Rain Light Rain
11:50 AM 57.2 °F 46.4 °F 67% 29.92 in 7.0 mi SE 8.1 mph - N/A   Overcast
12:50 PM 57.2 °F 46.4 °F 67% 29.91 in 7.0 mi ESE 8.1 mph - N/A   Overcast
1:50 PM 62.6 °F 46.4 °F 55% 29.89 in 7.0 mi Calm Calm - N/A   Overcast
2:50 PM 64.4 °F 46.4 °F 52% 29.87 in 7.0 mi South 4.6 mph - N/A   Overcast
3:50 PM 66.2 °F 44.6 °F 46% 29.85 in 7.0 mi SSW 8.1 mph - N/A   Mostly Cloudy
4:50 PM 66.2 °F 41.0 °F 40% 29.84 in 7.0 mi SW 9.2 mph - N/A   Mostly Cloudy
5:50 PM 62.6 °F 42.8 °F 48% 29.83 in 7.0 mi WSW 16.1 mph - N/A   Mostly Cloudy
6:50 PM 60.8 °F 42.8 °F 52% 29.85 in 7.0 mi SW 15.0 mph 26.5 mph N/A   Mostly Cloudy
7:50 PM 59.0 °F 41.0 °F 51% 29.83 in 6.0 mi SW 11.5 mph - N/A   Haze
8:50 PM 57.2 °F 44.6 °F 63% 29.88 in 6.0 mi SW 12.7 mph - N/A   Haze
9:40 PM 57.7 °F 43.9 °F 60% 29.89 in 10.0 mi SW 8.1 mph - N/A   Overcast
10:00 PM 57.4 °F 44.6 °F 62% 29.90 in 10.0 mi WSW 12.7 mph 17.3 mph N/A   Overcast
10:20 PM 56.5 °F 45.1 °F 66% 29.89 in 10.0 mi SW 8.1 mph 18.4 mph N/A   Overcast
10:40 PM 55.8 °F 45.1 °F 67% 29.90 in 10.0 mi SSW 8.1 mph - N/A   Overcast
11:00 PM 55.4 °F 45.5 °F 69% 29.89 in 10.0 mi SSW 8.1 mph - N/A   Overcast
11:20 PM 55.4 °F 46.0 °F 71% 29.88 in 10.0 mi South 4.6 mph - N/A   Overcast